Location: Pine Mountain Observatory
(43.7910°N, 120.9377°W)
Time: 13:56:34
(UTC-07:00)

Cosmos 1867 - Visible Passes

Search period start: 26 March 2017 00:00
Search period end: 05 April 2017 00:00
Orbit: 776 x 799 km, 65.0° (Epoch: 25 March)

Date Brightness Start Highest point End Pass type
(mag) Time Alt. Az. Time Alt. Az. Time Alt. Az.
26 Mar 6.6 00:04:56 10° NW 00:06:10 11° NNW 00:07:25 10° N visible
26 Mar 6.3 03:35:21 10° N 03:38:47 16° NNE 03:42:11 10° ENE visible
26 Mar 3.9 05:17:58 10° NNW 05:23:25 67° NE 05:28:49 10° SE visible
26 Mar 4.3 20:00:51 10° S 20:05:37 32° ESE 20:10:26 10° NE visible
26 Mar 4.7 21:43:53 10° WSW 21:49:04 44° NW 21:54:19 10° NNE visible
26 Mar 6.5 23:31:50 10° NW 23:34:08 13° NNW 23:36:27 10° N visible
27 Mar 6.4 03:04:02 10° N 03:06:49 14° NNE 03:09:34 10° ENE visible
27 Mar 4.4 04:46:22 10° NNW 04:51:43 51° NE 04:56:59 10° SE visible
27 Mar 4.2 21:11:59 10° SW 21:17:20 57° NW 21:22:45 10° NNE visible
27 Mar 6.4 22:59:05 10° WNW 23:02:08 15° NNW 23:05:12 10° N visible
28 Mar 6.6 02:32:52 10° N 02:34:47 12° NNE 02:36:43 10° NE visible
28 Mar 4.9 04:14:49 10° NNW 04:19:57 39° NE 04:25:02 10° ESE visible
28 Mar 4.1 05:58:33 10° NW 06:03:30 36° WSW 06:08:24 10° S visible
28 Mar 3.8 20:40:12 10° SW 20:45:39 75° NW 20:51:09 10° NNE visible
28 Mar 6.2 22:26:32 10° WNW 22:30:11 18° NNW 22:33:51 10° N visible
29 Mar 6.7 02:02:27 10° NNE 02:02:44 10° NNE 02:03:02 10° NNE visible
29 Mar 5.3 03:43:18 10° NNW 03:48:10 31° NE 03:52:59 10° ESE visible
29 Mar 3.7 05:26:43 10° NW 05:31:57 49° WSW 05:37:09 10° S visible
29 Mar 3.6 20:08:32 10° SSW 20:13:59 84° ESE 20:19:30 10° NE visible
29 Mar 6.0 21:54:07 10° W 21:58:16 21° NW 22:02:26 10° NNE visible
30 Mar 5.6 03:11:49 10° NNW 03:16:19 25° NE 03:20:47 10° E visible
30 Mar 3.5 04:54:57 10° NW 05:00:23 66° WSW 05:05:45 10° SSE visible
30 Mar 5.7 21:21:50 10° W 21:26:23 26° NW 21:30:58 10° NNE visible
31 Mar 5.9 02:40:22 10° NNW 02:44:26 21° NE 02:48:28 10° E visible
31 Mar 3.4 04:23:15 10° NW 04:28:46 88° WSW 04:34:11 10° SSE visible
31 Mar 5.1 06:09:05 10° WNW 06:11:31 13° WSW 06:13:57 10° SW visible
31 Mar 5.4 20:49:40 10° WSW 20:54:33 33° NW 20:59:29 10° NNE visible
31 Mar 6.7 22:39:02 10° NNW 22:39:56 10° NNW 22:40:49 10° N visible
01 Apr 6.1 02:08:58 10° N 02:12:30 17° NNE 02:16:02 10° ENE visible
01 Apr 3.7 03:51:37 10° NNW 03:57:06 71° NE 04:02:30 10° SE visible
01 Apr 4.8 05:36:28 10° WNW 05:40:06 18° WSW 05:43:43 10° SSW visible
01 Apr 5.0 20:17:37 10° WSW 20:22:45 41° NW 20:27:57 10° NNE visible
01 Apr 6.5 22:05:46 10° NW 22:07:53 12° NNW 22:10:00 10° N visible
02 Apr 6.3 01:37:37 10° N 01:40:32 14° NNE 01:43:26 10° ENE visible
02 Apr 4.5 03:20:01 10° NNW 03:24:14 45° N 03:24:14 45° N visible
02 Apr 5.6 05:04:16 10° WNW 05:14:18 - S 05:04:42 12° WNW visible
02 Apr 6.4 21:32:58 10° WNW 21:35:52 14° NNW 21:38:47 10° N visible
03 Apr 6.4 01:06:24 10° N 01:08:32 12° NNE 01:10:39 10° NE visible
03 Apr 5.1 02:48:28 10° NNW 02:51:42 31° N 02:51:42 31° N visible
03 Apr 5.9 04:32:16 10° NW 04:32:17 10° NW 04:32:17 10° NW visible
03 Apr 6.3 21:00:23 10° WNW 21:03:54 17° NNW 21:07:27 10° N visible
04 Apr 6.5 00:35:35 10° N 00:36:29 10° NNE 00:37:23 10° NNE visible
04 Apr 5.5 02:16:56 10° NNW 02:19:58 26° N 02:19:58 26° N visible
04 Apr 5.9 04:00:25 10° NW 04:00:34 11° NW 04:00:34 11° NW visible
04 Apr 6.1 20:27:56 10° W 20:31:59 21° NW 20:36:03 10° NNE visible
